Weather WX

World > North America > United States > New Jersey

Montville Township, New Jersey Regional Weather

Lat: 40.91N, Lon: 74.36W
Wx Zone: NJZ008
Warning FLW WEATHER ALERT - EXCESSIVE HEAT WARNING (More Info. Click Here) Warning
Feedback

Montville Township, NJ Regional Weather

Expires:201907192100;;316276
ASUS41 KOKX 192013
RWROKX

Regional Weather Roundup
National Weather Service New York NY
400 PM EDT FRI JUL 19 2019

Note: "FAIR" indicates few or no clouds below 12,000 feet with no
significant weather and/or obstructions to visibility.


NJZ001-105-106-008-010-013-015-019>022-104-192100-
New Jersey
  
CITY           SKY/WX    TMP DP  RH WIND       PRES   REMARKS
Newark/Liberty FAIR      94  74  52 SW13G24   29.84F HX 104           
Teterboro      PTSUNNY   93  74  53 SW12G17   29.83F HX 103           
Caldwell       PTSUNNY   93  75  55 W9        29.85F HX 104           
Somerville     FAIR      92  76  59 VRB3      29.84F HX 104           
Linden         FAIR      93  73  52 W9G17     29.86S HX 101           
Perth Amboy      N/A     90 N/A N/A W12         N/A                   
Sussex         FAIR      88  76  67 SW7       29.86F HX  99           
Andover          N/A     90  77  65 SW8G17    29.87F HX 103           
Trenton        FAIR      93  74  53 SW8       29.87F HX 103           
Millville      FAIR      92  75  57 VRB5      29.90F HX 103           
Atlantic City  FAIR      91  77  63 S8        29.90F HX 104           
Wrightstown    FAIR      93  75  56 W13       29.87  HX 104           
Toms River     FAIR      94  77  57 SW13G18   29.88F HX 108           
Belmar         FAIR      92  76  59 SW13      29.88F HX 104           
$$
 

SKY/WX - Weather  TMP - Temperature  DP - Dew Point  RH - Relative Humidity
WIND - Wind Direction/Speed PRES - Barometric Pressure VSB - Visibility
WCI - Wind Chill Index E13G22 Wind - East Wind 13 mph/Gusts of 22 mph